Miscellaneous Local Product
Issued by NWS Hastings, NE

Home | Current Version | Previous Version | Graphics & Text | Print | Product List | Glossary On
Versions: 1 2 3 4 5 6 7 8 9 10 11 12 13 14 15 16 17 18 19 20 21 22 23 24 25 26 27 28 29 30 31 32 33 34 35 36 37 38 39 40 41 42 43 44 45 46 47 48 49 50
000
AXUS43 KGID 302102
MISGRI

GID CWA HOURLY WEATHER ROUNDUP
NATIONAL WEATHER SERVICE HASTINGS NE
400 PM CDT THU JUL 30 2015

NOTE: "FAIR" INDICATES FEW OR NO CLOUDS BELOW 12,000 FEET WITH NO
SIGNIFICANT WEATHER AND/OR OBSTRUCTIONS TO VISIBILITY.

...SOUTH CENTRAL NEBRASKA...

CITY           SKY/WX    TMP DP  RH WIND       PRES   REMARKS
GRAND ISLAND   SUNNY     89  62  40 W6        30.20F
HASTINGS       SUNNY     87  65  47 VRB6      30.19F
KEARNEY        SUNNY     86  64  48 S9        30.20F
ORD            SUNNY     89  60  37 S12       30.17F
YORK           SUNNY     86  63  45 S6        30.19F
AURORA         SUNNY     86  66  51 SW7       30.19F
LEXINGTON      SUNNY     89  61  39 SW6       30.20F
HOLDREGE       SUNNY     87  61  41 S7        30.20F
HEBRON         SUNNY     87  54  31 S9        30.17F

...NEBRASKA PANHANDLE...

CITY           SKY/WX    TMP DP  RH WIND       PRES   REMARKS
CHADRON        SUNNY     89  45  21 CALM      30.23F
ALLIANCE       SUNNY     89  52  28 E8        30.25F
SCOTTSBLUFF    SUNNY     89  45  21 VRB7      30.26F
SIDNEY         MOSUNNY   87  58  37 NE5       30.26F

...WESTERN AND NORTH CENTRAL NEBRASKA...

CITY           SKY/WX    TMP DP  RH WIND       PRES   REMARKS
VALENTINE      SUNNY     92  41  17 NW7       30.19F
AINSWORTH      SUNNY     90  50  25 W5        30.19F
ONEILL         PTSUNNY   87  57  35 NW5       30.17F
BROKEN BOW     SUNNY     89  61  38 SW12      30.21F
IMPERIAL       SUNNY     91  56  30 S8        30.21F
NORTH PLATTE   SUNNY     89  57  33 S6        30.20F
MCCOOK         SUNNY     90  59  35 VRB3      30.20F

...EASTERN NEBRASKA...

CITY           SKY/WX    TMP DP  RH WIND       PRES   REMARKS
NORFOLK        SUNNY     88  60  38 SW9       30.16F
SO SIOUX CITY  SUNNY     87  67  51 W6        30.13F HX  90
TEKAMAH        SUNNY     87  65  47 W7        30.15F
COLUMBUS       SUNNY     88  61  40 SW9       30.17F
ALBION         SUNNY     88  56  33 S8        30.17F
OMAHA EPPLEY   MOSUNNY   90  57  32 W10       30.15F
OFFUTT AFB     SUNNY     88  59  38 VRB6      30.15F
MILLARD        SUNNY     89  60  37 W9        30.16F
LINCOLN        SUNNY     91  52  26 SW10      30.17F
NEBRASKA CITY  SUNNY     85  55  34 SW5       30.17F
BEATRICE       SUNNY     87  62  44 SW9       30.17F
FALLS CITY     SUNNY     87  63  44 SW5       30.16F

...NORTHERN KANSAS...

CITY           SKY/WX    TMP DP  RH WIND       PRES   REMARKS
GOODLAND       SUNNY     87  60  40 VRB7G17   30.24F
HILL CITY      MOSUNNY   87  65  47 SW7       30.20F
NORTON         PTCLDY    88  61  40 SE6       30.20F
PHILLIPSBURG   MOSUNNY   90  64  43 S6        30.18F HAZE    HX  91
SMITH CENTER   MOSUNNY   88  64  45 S7        30.18F
HAYS           PTSUNNY   84  64  51 SE6       30.19F
RUSSELL        PTSUNNY   84  68  58 S3        30.18F
CONCORDIA      MOSUNNY   85  67  54 S10       30.17F
SALINA         MOSUNNY   89  66  46 S7        30.17F HX  91
TOPEKA         PTSUNNY   85  60  42 SE5       30.17F



USA.gov is the U.S. government's official web portal to all federal, state and local government web resources and services.